Temp
12 12 12 11 11 11 11 11 11 10 10 10 10 10 10 10 11 11 11 11 11 12 12 11 11 11 11 11 11 11 11 11 11 11 10 10 9 9 9 9 8 8 8 8 8 8 8 8 8 8 8 8 8 7 7 7 7 7 7 7 7 7 7 7 7 7 7 7 7 7 7 7 7 7 7 7 7 7 8 8 8 8 8 8 8
12 12 12 11 11 11 11 11 10 10 10 10 10 10 10 10 10 11 11 11 11 11 12 11 11 11 11 11 11 11 11 11 11 11 10 10 9 9 9 9 8 8 8 8 8 8 8 8 8 8 8 7 8 8 7 7 7 7 7 7 7 7 7 7 7 7 7 7 7 7 7 7 7 7 7 7 7 7 7 7 8 8 8 8 8
11 12 12 11 10 10 11 10 10 10 10 10 10 10 10 10 10 10 11 11 11 11 11 11 11 11 11 11 11 11 11 11 11 11 10 10 10 9 9 9 8 8 8 8 8 8 8 8 8 8 8 7 7 8 7 7 7 7 7 7 7 7 7 7 7 7 7 7 7 7 7 7 7 7 7 7 7 7 7 7 7 8 8 8 8
11 11 11 11 10 10 10 10 10 10 9 9 9 10 10 10 10 10 11 11 11 11 11 11 11 11 11 11 11 11 11 11 11 11 11 10 10 10 9 9 8 8 8 8 8 8 8 8 8 8 8 7 7 8 7 7 7 7 7 7 7 7 7 7 7 7 7 7 7 7 7 7 7 7 7 7 7 7 7 7 7 7 8 8 8
11 11 11 10 10 10 10 10 10 9 9 9 9 9 10 10 10 10 11 11 11 11 11 11 11 11 11 11 11 11 11 11 11 11 10 10 10 10 10 9 9 8 8 8 8 8 8 8 8 8 7 7 7 7 7 7 7 7 7 7 7 7 7 7 7 7 7 7 7 7 7 7 7 7 7 7 7 7 7 7 7 7 7 7 8
11 11 10 10 10 10 10 10 9 9 9 9 9 9 10 10 10 10 11 11 11 11 11 11 11 11 11 11 11 11 11 11 11 11 10 10 10 10 10 9 9 8 8 8 8 8 8 8 8 7 7 7 7 7 7 7 7 7 7 7 7 7 7 7 7 7 7 7 7 7 7 7 7 7 7 7 7 7 7 7 7 7 7 7 7
11 11 10 10 10 10 10 9 9 9 9 9 9 9 10 10 10 10 11 11 11 11 11 11 11 11 11 10 10 11 11 11 11 10 10 10 10 10 10 9 9 9 8 8 8 8 7 7 7 7 7 7 7 7 7 7 7 7 7 7 7 7 7 7 7 7 7 7 7 7 7 7 7 7 7 7 7 7 7 7 7 7 7 7 7
11 11 10 10 10 10 10 9 9 9 8 9 9 9 10 10 10 10 10 11 11 11 11 11 11 11 10 10 10 10 10 10 10 10 10 10 10 10 10 9 9 9 8 8 8 7 7 7 7 7 7 7 7 7 7 7 7 7 7 7 7 7 7 7 7 7 7 7 7 7 7 7 7 7 7 7 7 7 7 7 7 7 7 7 7
10 10 9 9 10 10 10 10 9 8 8 9 9 9 9 10 10 10 10 11 11 11 11 11 10 10 10 10 10 10 10 10 10 10 10 10 10 10 10 9 9 9 8 8 8 7 7 7 7 7 7 7 7 7 7 7 7 7 7 7 7 7 7 7 7 7 7 7 7 7 7 7 7 7 7 7 7 7 7 7 7 7 7 7 7
10 10 9 8 8 9 9 9 9 8 8 8 9 9 9 9 10 10 10 10 10 11 10 10 10 10 10 10 10 10 10 10 10 10 10 10 10 10 9 9 9 9 8 8 7 7 7 7 7 7 7 7 7 7 7 7 7 7 7 7 7 7 7 7 7 7 7 7 7 7 7 7 7 7 7 7 7 7 7 7 7 7 7 7 7
10 10 9 8 7 7 8 8 8 8 8 8 8 9 9 9 9 10 10 10 10 10 10 10 10 10 10 10 10 10 10 10 10 10 10 10 10 9 9 9 9 8 8 8 7 7 7 7 7 7 7 7 7 7 7 7 7 7 7 7 8 8 7 7 7 7 7 7 7 7 7 7 7 7 7 7 7 7 7 7 7 7 7 7 7
9 9 9 8 7 6 7 8 7 7 7 8 8 8 9 9 9 10 10 10 10 10 10 10 10 10 10 10 10 10 9 9 9 9 9 9 9 9 9 9 9 8 8 8 8 7 7 7 7 7 7 7 7 7 7 7 7 7 7 7 8 8 7 7 7 7 7 7 7 7 7 7 7 7 7 7 7 7 7 7 7 7 7 7 7
9 9 9 8 7 6 6 6 7 7 7 7 8 8 9 9 9 9 9 10 10 10 10 10 10 10 9 9 9 9 9 9 9 9 9 9 9 9 9 8 8 8 8 8 8 7 7 7 7 7 7 7 7 7 7 7 7 7 7 7 8 8 7 7 7 7 7 7 7 7 7 7 7 7 7 7 7 7 7 7 7 7 7 7 7
9 9 9 8 6 6 5 6 6 7 7 7 8 8 8 9 9 9 9 9 9 9 9 9 9 9 9 9 9 9 9 9 9 9 9 8 8 8 8 8 8 8 8 8 8 7 7 7 7 7 7 7 7 7 7 7 7 7 7 7 8 8 7 7 7 7 7 7 7 7 7 7 7 7 7 7 7 7 7 7 7 7 7 7 7
8 8 8 7 6 5 5 5 6 6 7 7 8 8 8 8 9 9 9 9 9 9 9 9 9 9 9 8 8 8 8 8 8 8 8 8 8 8 8 8 8 8 7 7 8 7 7 7 7 6 7 7 7 7 7 7 7 7 7 7 7 8 7 7 7 7 7 7 7 7 7 7 7 7 7 7 7 7 7 7 7 7 7 7 7
7 7 7 6 6 5 5 5 6 6 6 7 7 7 8 8 8 8 8 8 9 8 8 8 8 8 8 8 8 8 8 8 8 8 7 7 7 7 7 7 7 7 7 7 7 7 7 7 6 6 6 6 6 7 7 7 7 7 7 7 7 7 7 7 7 7 7 7 7 7 7 7 7 7 7 7 7 7 7 7 7 7 7 7 7
7 7 6 6 6 5 5 5 6 6 6 6 7 7 7 8 8 8 8 8 8 8 8 8 8 8 8 8 7 7 7 7 7 7 7 7 7 7 7 7 7 7 7 7 7 7 7 6 6 6 6 6 6 6 6 7 7 7 7 7 7 7 7 7 7 7 7 7 7 7 7 7 7 7 7 7 7 7 7 7 7 7 7 7 7
7 6 6 6 6 5 5 5 6 6 6 6 6 6 6 7 7 8 8 8 8 8 8 8 8 8 8 8 7 7 7 7 7 7 6 6 6 6 6 6 6 7 6 6 7 7 7 6 6 6 6 6 6 6 6 6 7 7 7 7 7 7 7 7 7 7 7 7 7 7 7 7 7 7 7 7 7 7 7 7 7 7 7 7 7
6 6 6 6 6 5 5 6 6 6 6 6 6 6 6 7 7 7 7 7 8 8 8 8 8 8 7 7 7 7 7 7 6 6 6 6 6 6 6 6 6 6 6 6 6 6 6 6 6 6 6 6 6 6 6 6 6 7 7 7 7 7 7 7 7 7 7 7 7 7 7 7 7 7 7 7 7 7 7 7 7 7 7 7 7
6 6 6 6 6 6 6 6 6 6 6 6 6 6 7 7 7 7 7 7 8 8 8 7 7 7 7 7 7 7 7 6 6 5 5 5 5 6 6 6 6 6 6 6 6 6 6 6 6 6 6 6 6 6 6 6 6 6 6 7 7 7 7 7 7 7 7 7 7 7 7 7 7 7 7 7 7 7 7 7 7 7 7 7 7
6 6 6 6 6 6 6 6 6 6 6 6 6 6 7 7 7 7 7 7 7 7 7 7 7 7 7 7 7 6 6 5 5 5 5 5 5 5 5 5 5 5 6 6 6 6 6 6 6 6 6 6 6 6 5 6 6 6 6 6 7 7 7 7 7 7 7 7 7 7 7 7 7 7 7 7 7 7 7 7 7 7 7 7 7
7 7 6 6 6 6 6 6 6 6 6 6 6 7 7 7 7 7 7 7 7 7 7 7 7 6 6 6 6 6 5 5 5 5 5 5 5 5 5 5 5 5 5 5 5 6 6 6 6 6 5 6 6 5 5 5 5 6 6 6 6 6 7 7 7 7 7 7 7 7 7 7 7 7 7 7 7 7 7 7 7 7 7 7 7
7 7 7 6 6 6 6 6 6 6 6 7 7 7 7 7 7 7 7 7 7 7 6 6 6 6 6 6 6 6 5 5 5 5 5 5 5 5 5 5 5 5 5 5 5 5 6 6 6 5 5 5 5 5 5 5 5 5 6 6 6 6 6 7 7 7 7 7 7 7 7 7 7 7 7 7 7 7 7 7 7 7 7 7 7
7 7 7 7 7 6 6 6 6 6 6 7 7 7 7 6 6 6 6 6 6 6 6 6 6 6 6 6 6 5 5 5 5 5 5 5 4 4 5 5 5 5 5 5 5 5 5 5 5 5 5 5 5 5 5 5 5 5 6 6 6 6 6 6 6 7 7 7 7 7 7 7 7 7 7 7 7 7 7 7 7 7 7 7 7
7 7 7 7 7 6 6 5 6 6 6 7 7 7 7 6 6 6 6 6 6 6 6 6 6 6 6 5 5 5 5 5 5 5 5 5 4 4 4 5 5 4 4 4 4 5 5 5 5 5 5 5 5 5 5 5 5 5 5 6 6 6 6 6 6 6 6 7 7 7 7 7 7 7 7 7 7 7 7 7 7 7 7 7 7
7 7 7 6 6 6 6 6 6 6 7 7 7 7 7 6 6 6 6 6 6 6 6 6 5 5 5 5 5 5 5 5 5 5 5 4 4 4 4 4 4 4 4 4 4 4 4 5 5 5 5 5 5 5 5 5 5 5 5 6 6 6 6 6 6 6 6 6 7 7 7 6 6 7 7 7 7 7 7 7 7 7 7 7 7
6 6 6 6 6 6 6 6 6 7 7 7 6 6 7 6 6 6 6 6 6 6 6 5 5 5 5 5 5 5 5 5 5 5 4 4 4 4 4 4 4 4 4 4 4 4 4 4 4 4 5 5 5 5 5 5 5 5 5 5 5 6 6 6 6 6 6 6 6 6 6 6 6 6 6 6 6 7 7 7 7 7 7 7 7
6 6 6 6 6 6 6 6 6 6 6 6 6 6 6 6 6 6 6 6 6 6 5 5 5 5 5 5 5 5 4 4 4 4 4 4 4 4 4 4 4 4 4 4 4 4 4 4 4 4 4 4 4 5 5 5 5 5 5 5 5 5 5 5 6 6 6 6 6 6 6 6 6 6 6 6 6 6 6 6 6 6 7 7 7
6 6 6 6 6 7 6 7 7 7 6 6 6 6 6 6 6 6 6 6 5 5 5 5 5 5 5 5 5 5 4 4 4 4 4 4 4 4 4 4 4 4 4 4 4 4 3 4 4 4 4 4 4 4 4 4 4 5 4 5 5 5 5 5 5 5 5 6 6 6 6 6 6 6 6 6 6 6 6 6 6 6 6 6 6
6 6 6 6 6 7 7 7 7 6 6 6 6 6 6 6 6 6 6 6 5 5 5 5 5 5 4 4 4 4 4 4 4 4 4 4 4 4 4 4 4 4 4 4 4 4 3 3 4 4 4 4 4 4 4 4 4 4 4 4 5 5 5 5 5 5 5 5 5 5 5 5 5 5 5 6 6 6 6 6 6 6 6 6 6
6 6 6 6 6 7 7 7 6 6 6 6 6 6 6 6 6 6 6 5 5 5 5 5 5 4 4 4 4 4 4 4 4 4 4 3 3 4 4 4 4 4 4 4 4 4 3 3 4 4 4 4 4 4 4 4 4 4 4 4 4 5 4 4 4 4 4 5 5 5 5 5 5 5 5 5 5 5 5 5 5 6 6 6 6
6 6 6 6 7 7 6 6 6 6 6 6 6 6 6 6 6 6 6 6 5 5 5 5 4 4 4 4 4 4 4 4 4 4 4 3 3 3 4 4 4 4 4 4 4 4 4 3 3 3 4 3 3 3 4 4 4 4 4 4 4 4 4 4 4 4 4 4 4 5 5 5 5 5 5 5 5 5 5 5 5 5 5 5 6
6 6 6 6 6 6 6 6 6 6 6 6 6 6 6 6 6 6 6 6 6 5 5 5 4 4 4 4 4 4 4 4 4 4 3 3 3 3 3 4 4 4 4 4 4 4 4 4 3 3 3 3 3 3 3 3 3 3 3 3 4 4 4 3 3 3 3 3 4 4 5 5 5 5 5 5 5 5 5 5 5 5 5 5 5
5 6 6 6 6 6 6 6 6 5 6 6 6 6 6 6 6 6 6 6 6 6 5 5 5 4 4 4 4 4 4 4 4 4 3 3 3 3 3 3 3 4 3 3 3 3 4 4 3 3 3 3 3 3 3 3 3 3 3 3 3 4 4 4 3 3 3 3 3 4 4 5 5 4 4 4 4 4 4 5 5 5 5 5 5
5 5 5 6 6 6 6 6 6 6 6 6 6 6 6 6 6 6 6 6 6 6 5 5 4 4 4 4 4 4 4 3 3 3 3 3 3 3 3 3 3 3 3 3 3 3 3 3 3 3 3 3 3 3 3 3 3 3 3 3 3 3 3 3 3 3 3 3 3 3 3 4 4 4 4 4 4 4 4 4 4 4 4 4 4
5 5 5 5 6 6 5 6 6 6 6 6 6 6 6 6 6 6 6 6 5 5 5 5 4 4 3 3 4 3 3 3 3 3 3 3 3 3 3 3 3 3 3 3 3 3 3 3 3 3 3 3 3 3 3 3 3 3 3 3 3 3 3 3 3 3 3 3 3 3 3 3 3 3 3 3 3 3 4 4 4 4 4 4 4
4 5 5 5 5 5 6 6 6 6 6 6 6 6 6 6 6 6 6 6 5 5 5 4 4 4 3 3 3 3 3 3 3 3 3 3 3 3 3 3 3 3 3 3 3 3 3 3 3 3 3 3 3 3 3 3 3 3 3 3 3 3 3 3 3 3 3 3 3 3 3 3 3 3 3 3 3 3 3 3 3 4 4 4 4
4 4 4 5 5 5 5 5 5 6 6 5 5 5 5 5 6 6 6 6 5 5 5 4 4 4 3 3 3 3 3 3 3 3 3 3 3 3 3 3 3 3 3 3 3 3 3 3 3 3 3 3 3 3 3 3 3 3 3 3 3 3 3 3 3 3 3 3 3 3 2 2 2 3 2 2 2 3 3 3 3 3 3 4 4
4 4 4 5 5 4 4 4 5 5 5 5 5 5 5 5 5 5 5 5 5 5 5 4 4 4 4 3 3 3 3 3 3 3 3 3 3 3 3 3 3 3 3 3 3 3 3 3 3 3 3 3 3 3 3 3 3 3 3 3 3 3 3 3 3 3 3 3 3 3 2 2 2 2 2 2 2 2 2 3 3 3 3 3 4
4 5 5 5 5 5 5 5 5 5 5 5 5 5 5 5 5 5 5 5 5 5 5 4 4 4 4 3 3 3 3 3 3 3 3 3 3 3 3 3 3 3 3 3 3 3 3 3 3 3 3 3 3 3 3 3 3 2 3 3 2 2 3 3 3 3 3 3 3 3 2 2 2 2 1 1 2 2 2 2 3 3 3 3 4
4 5 5 5 5 5 5 5 5 5 5 5 4 5 5 5 5 5 5 5 5 5 5 4 4 4 4 3 3 3 3 3 2 3 3 3 2 2 2 2 3 3 3 3 3 2 2 3 3 3 3 3 3 3 3 3 3 2 2 2 2 2 2 2 3 3 3 3 3 3 2 2 2 2 1 1 2 2 2 2 2 3 3 3 3
5 5 5 5 5 5 5 5 5 5 5 4 4 4 4 5 5 5 5 5 5 5 5 4 4 4 4 3 3 3 2 2 2 2 2 2 2 2 2 2 2 2 3 3 3 3 2 2 3 3 3 3 3 3 3 3 3 2 2 2 2 2 2 2 3 3 3 3 3 3 3 2 2 2 2 2 1 1 2 2 2 2 2 3 3
5 5 5 5 4 5 5 5 5 5 5 5 4 4 4 4 4 5 5 5 5 5 5 5 4 4 4 4 3 3 3 2 2 2 2 2 2 2 2 2 2 2 3 3 3 3 3 2 2 2 2 3 3 3 2 2 2 2 2 2 2 2 2 2 2 3 3 3 2 3 3 2 2 2 2 2 1 1 1 2 2 2 2 2 2
5 4 4 4 4 4 5 5 5 5 4 4 4 4 4 4 4 4 4 5 5 5 5 5 5 4 4 4 4 3 3 3 2 2 2 2 2 2 2 2 2 2 2 2 2 3 3 2 2 2 2 2 2 2 2 2 2 2 2 2 2 2 2 2 2 2 2 2 2 2 2 2 2 2 2 2 2 2 1 1 1 2 2 2 2
5 4 4 4 4 4 5 5 5 5 4 4 4 4 4 4 4 4 4 4 4 5 5 4 4 4 4 4 4 3 3 3 2 2 2 2 2 2 2 2 2 2 2 2 2 2 2 2 3 2 2 2 2 2 2 2 2 2 2 2 2 2 2 2 2 2 2 2 2 2 2 2 2 2 2 2 2 2 2 1 1 2 2 2 2
5 5 4 4 4 5 5 5 5 4 4 4 4 4 4 4 4 4 4 4 4 4 4 4 4 4 4 3 3 3 3 3 2 2 2 2 2 2 2 2 2 2 2 2 2 2 2 2 2 2 2 2 2 2 2 2 2 2 2 2 2 2 2 2 2 2 2 2 2 2 2 2 2 2 2 2 1 1 1 1 1 1 2 2 2
5 5 4 4 4 5 5 5 5 4 4 4 4 4 4 4 4 4 4 4 4 4 4 4 4 4 3 3 3 3 3 3 2 2 2 2 2 2 2 2 2 2 2 2 2 2 2 2 2 2 2 2 2 2 2 2 2 2 2 2 2 2 2 2 2 2 2 2 2 2 2 2 2 2 2 2 1 1 1 2 2 1 1 2 2
5 4 4 4 4 5 5 5 4 4 4 4 4 3 3 3 4 4 4 4 4 4 4 4 4 4 3 3 3 3 3 3 2 2 2 2 2 2 2 2 2 2 2 2 2 2 2 2 2 2 2 2 2 2 2 2 2 2 2 2 2 2 2 2 1 2 2 2 2 2 2 2 1 1 1 1 1 2 2 2 2 2 2 1 1
4 4 4 5 4 4 4 4 4 4 4 4 3 3 3 3 3 3 3 3 3 3 3 3 3 3 3 3 3 3 2 2 2 2 2 2 2 2 2 2 2 2 2 2 2 2 2 2 2 2 2 2 2 2 2 2 2 2 2 2 2 2 2 1 1 1 1 1 1 1 1 1 1 1 1 1 1 2 2 2 2 1 1 1 1
4 4 4 4 4 4 4 4 4 4 4 4 3 3 3 3 3 3 3 3 3 3 3 3 3 3 3 3 3 3 3 2 2 2 2 2 2 1 1 2 2 2 2 2 2 2 2 2 2 2 2 2 2 2 2 2 2 2 2 2 2 2 1 1 1 1 1 1 1 1 1 1 1 1 1 1 1 1 2 2 2 1 1 1 1
4 3 3 4 4 4 4 4 4 4 4 3 3 3 3 3 3 3 2 2 2 3 3 3 3 3 3 3 3 3 2 2 2 2 2 2 2 1 1 1 1 2 2 2 2 2 2 2 2 2 2 2 2 2 2 2 2 2 2 2 2 2 1 1 1 2 2 1 1 1 1 1 1 1 1 1 1 1 1 1 2 1 1 1 1
Height
3137 3138 3138 3139 3140 3141 3141 3142 3142 3143 3144 3145 3145 3145 3145 3145 3146 3146 3147 3147 3148 3149 3149 3150 3150 3150 3151 3151 3151 3151 3152 3152 3153 3153 3153 3153 3154 3155 3155 3156 3156 3157 3158 3159 3160 3160 3161 3162 3163 3163 3164 3164 3164 3165 3165 3166 3166 3167 3168 3169 3169 3170 3170 3170 3170 3170 3169 3170 3170 3170 3170 3170 3169 3169 3168 3167 3166 3166 3165 3164 3164 3163 3162 3160 3159
3137 3137 3138 3138 3140 3140 3141 3141 3142 3143 3144 3144 3144 3144 3145 3145 3145 3145 3146 3147 3148 3149 3149 3150 3150 3150 3151 3151 3151 3152 3152 3153 3153 3153 3153 3154 3154 3155 3156 3156 3157 3158 3158 3159 3160 3161 3162 3162 3163 3164 3164 3165 3165 3165 3166 3166 3167 3167 3168 3169 3170 3170 3171 3171 3171 3171 3171 3171 3171 3171 3171 3171 3170 3170 3170 3169 3168 3167 3166 3166 3165 3164 3163 3162 3161
3136 3137 3137 3138 3139 3140 3140 3141 3142 3142 3143 3144 3144 3144 3144 3144 3144 3145 3146 3147 3148 3149 3149 3150 3150 3150 3151 3151 3151 3152 3152 3153 3153 3153 3153 3154 3154 3155 3156 3157 3157 3158 3159 3159 3160 3161 3162 3163 3163 3164 3164 3165 3165 3166 3167 3167 3167 3168 3169 3170 3170 3171 3171 3171 3171 3172 3172 3172 3172 3173 3172 3172 3171 3171 3171 3170 3170 3169 3168 3167 3166 3165 3164 3164 3163
3136 3137 3137 3138 3139 3140 3140 3140 3141 3142 3142 3143 3143 3143 3143 3144 3145 3145 3146 3147 3148 3149 3149 3150 3150 3150 3150 3151 3151 3152 3152 3153 3153 3153 3154 3154 3154 3155 3156 3156 3157 3158 3159 3159 3160 3161 3162 3163 3163 3164 3165 3165 3166 3167 3167 3168 3168 3169 3169 3170 3171 3172 3172 3172 3172 3173 3173 3173 3174 3174 3174 3173 3173 3172 3172 3172 3171 3171 3170 3169 3168 3167 3166 3165 3164
3136 3136 3137 3138 3139 3140 3140 3140 3140 3141 3141 3142 3142 3142 3143 3144 3145 3146 3146 3147 3148 3149 3149 3150 3150 3150 3150 3151 3151 3152 3152 3153 3153 3153 3154 3154 3155 3155 3155 3156 3157 3158 3159 3159 3160 3161 3162 3163 3163 3164 3165 3166 3166 3167 3168 3168 3169 3169 3170 3171 3171 3172 3173 3173 3173 3173 3174 3174 3175 3175 3175 3175 3174 3173 3173 3173 3173 3172 3172 3171 3169 3168 3167 3167 3166
3135 3136 3137 3138 3139 3139 3139 3139 3139 3140 3140 3141 3141 3142 3143 3144 3145 3146 3147 3147 3148 3149 3149 3149 3150 3150 3150 3150 3151 3152 3152 3153 3153 3154 3154 3154 3155 3155 3156 3156 3157 3158 3159 3160 3160 3161 3162 3163 3163 3164 3165 3166 3167 3167 3168 3169 3169 3170 3170 3171 3172 3173 3174 3174 3174 3174 3175 3175 3176 3176 3176 3176 3176 3175 3174 3174 3174 3174 3173 3172 3171 3170 3169 3168 3167
3135 3136 3137 3138 3138 3138 3138 3138 3138 3139 3139 3140 3141 3142 3143 3144 3145 3146 3147 3147 3148 3148 3149 3149 3149 3150 3150 3150 3151 3151 3152 3153 3154 3154 3154 3154 3155 3156 3156 3156 3156 3157 3158 3159 3160 3161 3162 3163 3163 3164 3165 3166 3166 3167 3168 3169 3169 3170 3171 3172 3172 3173 3174 3175 3175 3175 3176 3176 3176 3177 3177 3177 3177 3176 3175 3175 3175 3175 3174 3174 3173 3172 3171 3170 3169
3135 3136 3137 3137 3137 3137 3137 3137 3137 3138 3139 3140 3141 3142 3143 3144 3145 3146 3146 3147 3147 3148 3148 3149 3149 3150 3150 3151 3151 3151 3152 3153 3154 3154 3155 3155 3155 3156 3156 3156 3156 3156 3158 3159 3160 3161 3161 3162 3163 3163 3164 3165 3166 3167 3168 3168 3169 3170 3171 3172 3173 3174 3174 3175 3175 3175 3176 3177 3177 3178 3178 3178 3178 3177 3177 3176 3176 3176 3176 3175 3175 3174 3173 3171 3170
3134 3135 3136 3136 3136 3135 3135 3136 3137 3138 3139 3140 3141 3142 3142 3144 3145 3145 3146 3146 3147 3147 3148 3148 3149 3150 3150 3151 3151 3151 3152 3153 3154 3154 3155 3155 3155 3156 3156 3156 3156 3156 3157 3158 3160 3160 3161 3162 3163 3163 3164 3164 3165 3166 3167 3168 3169 3170 3171 3172 3173 3174 3175 3176 3175 3176 3177 3177 3178 3178 3179 3179 3179 3178 3178 3178 3177 3177 3177 3177 3176 3175 3174 3173 3172
3133 3134 3134 3135 3135 3134 3134 3135 3136 3137 3138 3139 3140 3141 3142 3144 3145 3146 3146 3146 3146 3146 3147 3148 3149 3150 3150 3151 3151 3152 3153 3153 3154 3154 3155 3155 3156 3156 3156 3156 3156 3156 3157 3158 3159 3160 3161 3161 3162 3162 3163 3164 3165 3166 3167 3168 3168 3169 3170 3171 3173 3174 3175 3176 3176 3176 3177 3177 3178 3178 3179 3179 3179 3179 3179 3179 3178 3178 3178 3178 3177 3177 3176 3175 3174
3134 3134 3134 3135 3135 3134 3134 3134 3134 3136 3138 3139 3140 3141 3142 3144 3145 3146 3146 3146 3146 3147 3147 3148 3149 3150 3151 3151 3152 3152 3152 3153 3154 3154 3155 3155 3155 3156 3156 3156 3156 3156 3157 3157 3158 3159 3160 3161 3161 3162 3163 3164 3164 3165 3166 3167 3168 3169 3170 3171 3173 3174 3175 3176 3176 3177 3177 3178 3178 3179 3179 3180 3180 3180 3180 3180 3179 3179 3179 3179 3178 3178 3177 3176 3175
3134 3134 3133 3133 3134 3134 3133 3133 3134 3136 3138 3139 3140 3141 3142 3144 3145 3146 3146 3146 3146 3147 3148 3148 3149 3150 3151 3151 3152 3152 3152 3153 3153 3154 3154 3155 3155 3156 3156 3156 3156 3156 3156 3157 3158 3159 3159 3160 3161 3161 3162 3163 3164 3165 3166 3167 3167 3168 3169 3171 3173 3174 3175 3175 3176 3177 3178 3178 3179 3179 3179 3180 3180 3180 3180 3180 3180 3180 3180 3180 3179 3179 3178 3178 3177
3133 3133 3131 3131 3132 3133 3132 3131 3132 3136 3138 3139 3141 3142 3143 3144 3145 3146 3146 3146 3146 3147 3148 3148 3149 3150 3151 3151 3152 3152 3152 3152 3153 3153 3154 3154 3155 3155 3156 3156 3156 3156 3156 3157 3157 3158 3159 3159 3160 3160 3161 3162 3163 3164 3165 3166 3166 3167 3169 3170 3172 3174 3174 3175 3176 3177 3178 3178 3179 3179 3180 3180 3180 3181 3181 3181 3181 3181 3181 3181 3180 3180 3179 3179 3178
3132 3132 3130 3128 3130 3132 3130 3129 3131 3135 3138 3139 3141 3142 3143 3145 3145 3146 3146 3146 3147 3147 3148 3148 3149 3150 3151 3151 3151 3152 3152 3152 3152 3153 3153 3154 3154 3155 3155 3156 3156 3156 3157 3157 3157 3157 3158 3158 3158 3159 3160 3161 3162 3163 3164 3165 3165 3166 3168 3170 3172 3173 3174 3175 3176 3177 3178 3178 3179 3179 3180 3180 3181 3181 3181 3181 3182 3181 3181 3181 3181 3181 3180 3180 3180
3131 3131 3130 3128 3129 3132 3130 3128 3131 3135 3137 3139 3141 3143 3144 3145 3146 3146 3146 3147 3147 3148 3148 3149 3150 3151 3151 3152 3152 3152 3152 3152 3152 3152 3153 3153 3154 3154 3155 3155 3156 3156 3156 3157 3157 3157 3157 3157 3157 3158 3159 3160 3161 3162 3163 3163 3164 3165 3167 3169 3171 3173 3173 3174 3175 3176 3177 3178 3179 3179 3179 3180 3180 3181 3181 3182 3182 3182 3182 3182 3182 3182 3181 3181 3181
3130 3129 3130 3129 3129 3133 3132 3130 3132 3135 3137 3139 3142 3144 3144 3145 3146 3146 3147 3147 3148 3148 3148 3149 3150 3151 3151 3152 3152 3151 3151 3151 3152 3152 3152 3153 3153 3154 3154 3155 3155 3155 3156 3156 3157 3157 3157 3157 3157 3157 3158 3159 3160 3160 3161 3162 3163 3164 3166 3168 3170 3172 3173 3173 3174 3175 3176 3177 3178 3179 3179 3180 3180 3181 3181 3182 3182 3182 3182 3182 3182 3182 3182 3182 3181
3129 3129 3130 3130 3131 3133 3133 3131 3133 3136 3138 3140 3142 3144 3144 3145 3146 3146 3147 3148 3148 3148 3149 3149 3150 3150 3151 3151 3151 3151 3151 3151 3151 3151 3152 3152 3152 3153 3153 3154 3154 3155 3155 3156 3156 3157 3157 3157 3156 3157 3157 3158 3159 3159 3160 3161 3162 3163 3165 3167 3169 3171 3172 3173 3173 3174 3176 3177 3178 3178 3179 3179 3180 3180 3181 3182 3182 3182 3182 3182 3183 3183 3183 3182 3182
3129 3130 3130 3130 3131 3133 3134 3133 3135 3137 3139 3141 3142 3143 3143 3145 3146 3146 3147 3147 3148 3148 3148 3149 3149 3149 3150 3151 3150 3150 3150 3150 3150 3151 3151 3152 3152 3152 3153 3154 3154 3154 3155 3155 3156 3157 3157 3157 3156 3156 3157 3157 3158 3158 3159 3160 3160 3161 3163 3165 3167 3169 3171 3172 3172 3174 3175 3176 3177 3178 3178 3179 3180 3180 3181 3181 3182 3182 3182 3183 3183 3183 3183 3183 3183
3129 3130 3130 3131 3132 3133 3135 3136 3137 3138 3139 3141 3142 3144 3144 3145 3146 3146 3146 3147 3147 3148 3148 3148 3148 3149 3150 3150 3150 3149 3149 3149 3150 3150 3151 3151 3152 3152 3153 3154 3154 3154 3155 3155 3156 3156 3157 3157 3156 3156 3156 3156 3157 3157 3158 3158 3159 3160 3162 3163 3166 3168 3170 3171 3171 3173 3174 3175 3176 3177 3178 3178 3179 3180 3180 3181 3182 3182 3182 3182 3183 3183 3183 3183 3183
3129 3130 3131 3132 3132 3133 3135 3136 3137 3138 3139 3141 3143 3144 3145 3146 3146 3146 3146 3147 3147 3148 3148 3148 3148 3149 3149 3149 3149 3149 3148 3148 3149 3149 3150 3150 3151 3152 3153 3153 3154 3154 3155 3155 3156 3156 3156 3156 3156 3156 3156 3155 3156 3156 3157 3157 3158 3159 3160 3161 3164 3167 3169 3170 3171 3172 3173 3174 3175 3176 3177 3178 3178 3179 3180 3180 3181 3182 3182 3182 3183 3183 3183 3183 3183
3128 3130 3131 3131 3132 3132 3133 3135 3137 3139 3140 3142 3144 3145 3145 3146 3146 3146 3146 3146 3147 3147 3147 3147 3148 3148 3148 3148 3148 3148 3148 3148 3148 3149 3149 3150 3151 3152 3152 3153 3153 3154 3154 3155 3155 3155 3155 3156 3156 3156 3155 3155 3155 3156 3156 3157 3157 3158 3159 3160 3162 3165 3167 3169 3170 3171 3172 3172 3174 3175 3176 3177 3178 3178 3179 3180 3180 3181 3181 3182 3182 3183 3183 3183 3183
3128 3129 3130 3130 3131 3132 3133 3134 3136 3138 3140 3142 3143 3144 3145 3145 3145 3146 3146 3146 3146 3147 3147 3147 3147 3147 3147 3148 3147 3147 3147 3147 3148 3148 3149 3149 3150 3151 3152 3152 3153 3154 3154 3154 3154 3154 3154 3155 3155 3155 3155 3155 3155 3155 3156 3156 3157 3157 3158 3159 3161 3164 3166 3167 3169 3170 3170 3171 3172 3174 3175 3176 3177 3177 3178 3179 3179 3180 3180 3181 3182 3182 3182 3183 3183
3128 3129 3129 3130 3131 3132 3133 3134 3136 3138 3140 3142 3143 3144 3145 3145 3145 3146 3146 3146 3146 3146 3146 3146 3147 3147 3147 3147 3147 3147 3147 3147 3147 3148 3148 3149 3149 3150 3151 3152 3152 3153 3153 3153 3153 3154 3154 3154 3154 3153 3154 3154 3154 3154 3155 3155 3156 3156 3157 3158 3160 3163 3165 3166 3167 3168 3169 3170 3171 3172 3174 3175 3175 3176 3177 3178 3178 3179 3179 3180 3181 3181 3182 3182 3182
3128 3128 3129 3130 3131 3131 3132 3134 3136 3138 3140 3142 3144 3144 3145 3145 3146 3146 3146 3146 3146 3146 3146 3146 3146 3146 3146 3146 3146 3146 3146 3146 3147 3147 3148 3148 3149 3149 3150 3151 3151 3151 3151 3152 3153 3153 3153 3153 3152 3152 3152 3153 3154 3154 3154 3154 3155 3155 3156 3157 3159 3161 3163 3165 3166 3167 3168 3170 3170 3172 3173 3173 3174 3175 3176 3176 3177 3178 3178 3179 3180 3180 3181 3181 3182
3128 3129 3130 3130 3131 3132 3133 3134 3136 3138 3141 3143 3143 3144 3144 3145 3145 3145 3145 3145 3145 3145 3146 3146 3145 3145 3145 3145 3145 3145 3145 3146 3146 3147 3148 3148 3148 3149 3149 3150 3150 3150 3151 3152 3152 3152 3152 3152 3151 3152 3152 3152 3153 3153 3153 3153 3154 3154 3155 3156 3157 3159 3161 3163 3164 3166 3167 3168 3169 3171 3172 3172 3173 3174 3175 3175 3176 3177 3177 3178 3178 3179 3180 3180 3181
3128 3129 3130 3131 3132 3132 3133 3135 3136 3139 3141 3143 3143 3143 3143 3144 3144 3144 3144 3144 3145 3145 3145 3145 3145 3145 3145 3145 3145 3145 3145 3145 3146 3146 3147 3148 3148 3149 3149 3149 3149 3150 3150 3151 3152 3151 3151 3151 3151 3151 3151 3151 3151 3152 3152 3152 3152 3153 3154 3155 3156 3157 3158 3160 3162 3164 3165 3167 3168 3169 3170 3170 3171 3172 3173 3174 3175 3175 3176 3177 3177 3178 3179 3179 3180
3129 3130 3131 3131 3132 3133 3134 3135 3136 3139 3141 3142 3142 3142 3143 3143 3143 3143 3144 3144 3144 3144 3144 3144 3144 3144 3144 3144 3144 3144 3144 3145 3145 3146 3147 3147 3147 3148 3148 3148 3148 3149 3150 3150 3150 3150 3150 3150 3150 3150 3150 3150 3150 3150 3151 3151 3151 3152 3152 3153 3154 3155 3156 3158 3160 3162 3164 3165 3166 3167 3168 3168 3169 3171 3172 3173 3173 3174 3175 3175 3176 3177 3177 3178 3179
3129 3131 3131 3132 3132 3133 3133 3135 3136 3137 3140 3141 3142 3142 3142 3142 3142 3143 3143 3143 3143 3143 3143 3143 3143 3143 3143 3143 3143 3143 3144 3144 3144 3145 3146 3146 3146 3147 3147 3147 3148 3148 3149 3149 3149 3149 3149 3149 3149 3149 3149 3149 3149 3149 3150 3150 3151 3151 3151 3152 3153 3153 3154 3156 3158 3161 3162 3163 3164 3165 3166 3167 3168 3169 3170 3171 3172 3173 3173 3174 3175 3176 3176 3177 3178
3128 3130 3131 3132 3132 3133 3134 3135 3136 3137 3138 3140 3141 3141 3141 3141 3142 3142 3142 3142 3142 3142 3142 3142 3142 3142 3142 3142 3142 3142 3143 3143 3144 3144 3145 3145 3145 3146 3146 3147 3147 3148 3148 3148 3148 3148 3148 3148 3148 3148 3148 3148 3148 3148 3149 3149 3150 3150 3150 3151 3151 3152 3152 3154 3156 3158 3160 3161 3162 3163 3164 3165 3166 3167 3168 3169 3170 3171 3172 3173 3173 3174 3175 3176 3177
3127 3129 3130 3131 3132 3133 3134 3135 3136 3137 3138 3139 3141 3141 3141 3141 3141 3141 3141 3141 3141 3141 3141 3141 3141 3141 3141 3141 3141 3141 3141 3142 3143 3143 3144 3145 3145 3145 3145 3145 3146 3146 3147 3147 3147 3147 3147 3147 3147 3147 3148 3148 3148 3148 3148 3148 3149 3150 3150 3150 3151 3152 3152 3152 3153 3155 3157 3159 3160 3161 3162 3163 3164 3165 3166 3167 3168 3169 3170 3171 3172 3173 3173 3174 3175
3126 3128 3129 3131 3133 3133 3134 3135 3136 3137 3138 3139 3141 3141 3141 3141 3141 3141 3140 3140 3140 3140 3140 3140 3140 3140 3140 3140 3140 3140 3140 3140 3141 3142 3143 3144 3144 3145 3145 3144 3144 3145 3146 3146 3147 3147 3146 3146 3146 3147 3147 3146 3147 3147 3147 3148 3148 3149 3150 3150 3151 3152 3151 3151 3152 3153 3154 3156 3158 3159 3160 3161 3162 3163 3164 3165 3166 3167 3168 3169 3170 3171 3171 3172 3173
3125 3127 3129 3130 3132 3133 3134 3135 3136 3137 3139 3140 3141 3141 3142 3142 3141 3141 3140 3139 3139 3139 3138 3139 3139 3139 3139 3139 3139 3139 3139 3139 3141 3142 3142 3143 3143 3144 3144 3144 3144 3144 3145 3145 3146 3146 3146 3146 3146 3146 3146 3146 3146 3146 3146 3147 3147 3148 3149 3150 3151 3151 3151 3151 3151 3151 3152 3154 3155 3157 3158 3159 3160 3161 3163 3163 3164 3165 3166 3167 3168 3169 3170 3170 3171
3123 3126 3128 3130 3131 3132 3133 3134 3136 3137 3139 3140 3140 3141 3142 3142 3142 3141 3139 3138 3138 3137 3137 3137 3137 3138 3138 3138 3139 3137 3137 3140 3141 3141 3141 3142 3143 3143 3143 3143 3143 3143 3144 3144 3145 3145 3145 3145 3145 3146 3145 3145 3145 3145 3145 3146 3147 3148 3148 3149 3150 3150 3150 3150 3150 3150 3151 3152 3153 3155 3156 3157 3158 3159 3161 3161 3162 3163 3164 3165 3166 3167 3168 3169 3170
3122 3125 3128 3129 3131 3132 3133 3134 3136 3137 3139 3140 3141 3142 3142 3142 3142 3141 3140 3138 3137 3137 3136 3136 3136 3137 3137 3138 3138 3137 3137 3139 3140 3140 3141 3142 3142 3142 3142 3142 3142 3143 3143 3144 3144 3144 3145 3145 3145 3146 3146 3145 3144 3144 3144 3145 3146 3147 3148 3148 3149 3149 3149 3150 3150 3150 3150 3151 3152 3153 3154 3155 3156 3158 3159 3160 3160 3161 3162 3163 3164 3165 3166 3167 3168
3122 3124 3127 3129 3131 3133 3134 3135 3136 3137 3139 3140 3141 3142 3142 3142 3142 3141 3140 3138 3137 3136 3135 3135 3135 3136 3136 3137 3137 3137 3136 3138 3139 3139 3140 3140 3140 3140 3140 3140 3141 3142 3142 3143 3143 3143 3144 3144 3145 3145 3145 3144 3143 3143 3144 3144 3145 3145 3146 3147 3148 3148 3148 3149 3149 3149 3149 3150 3151 3152 3153 3153 3155 3156 3157 3158 3159 3159 3160 3162 3163 3164 3164 3165 3166
3121 3124 3127 3129 3131 3133 3135 3136 3136 3137 3139 3140 3140 3141 3142 3142 3141 3140 3138 3137 3136 3135 3134 3134 3134 3134 3135 3135 3136 3136 3136 3136 3136 3137 3137 3138 3139 3139 3139 3139 3140 3141 3142 3142 3142 3142 3143 3144 3144 3144 3144 3143 3143 3143 3143 3144 3144 3144 3144 3145 3146 3147 3147 3148 3148 3148 3148 3149 3150 3151 3151 3152 3153 3154 3155 3156 3157 3158 3159 3160 3161 3162 3163 3164 3164
3122 3124 3127 3130 3132 3134 3136 3137 3137 3138 3139 3139 3140 3141 3141 3141 3140 3139 3137 3136 3134 3134 3133 3133 3133 3133 3133 3134 3134 3135 3135 3135 3135 3135 3135 3136 3136 3137 3138 3138 3139 3140 3141 3141 3141 3141 3142 3143 3143 3143 3143 3143 3142 3142 3143 3143 3143 3143 3143 3144 3145 3146 3146 3146 3147 3147 3148 3148 3149 3150 3150 3151 3152 3153 3154 3154 3155 3156 3157 3158 3159 3160 3161 3162 3163
3122 3124 3126 3131 3133 3134 3136 3137 3138 3139 3138 3139 3140 3140 3140 3139 3139 3138 3137 3135 3134 3133 3132 3132 3132 3131 3132 3132 3133 3133 3134 3134 3134 3135 3135 3135 3135 3136 3136 3137 3138 3138 3139 3139 3140 3140 3141 3142 3141 3141 3142 3142 3142 3142 3142 3142 3143 3143 3143 3143 3144 3145 3145 3146 3146 3146 3147 3148 3148 3149 3149 3150 3151 3151 3152 3152 3153 3154 3155 3157 3158 3159 3160 3160 3161
3123 3125 3127 3130 3132 3133 3135 3136 3137 3138 3138 3138 3138 3138 3138 3138 3138 3137 3136 3135 3134 3133 3132 3131 3131 3130 3130 3131 3131 3132 3133 3133 3134 3134 3134 3134 3135 3135 3136 3136 3136 3137 3137 3138 3138 3139 3140 3140 3140 3140 3140 3141 3141 3141 3141 3142 3142 3142 3142 3142 3143 3143 3144 3145 3145 3145 3146 3147 3147 3147 3148 3149 3150 3150 3151 3151 3152 3153 3154 3155 3156 3157 3158 3159 3160
3124 3127 3128 3130 3132 3133 3134 3135 3136 3137 3136 3136 3137 3137 3138 3138 3137 3137 3136 3135 3134 3132 3131 3130 3130 3129 3129 3129 3130 3131 3132 3132 3133 3133 3133 3134 3134 3135 3135 3135 3135 3135 3135 3136 3137 3138 3139 3139 3138 3139 3139 3139 3140 3140 3140 3140 3140 3140 3141 3141 3141 3142 3143 3143 3143 3143 3144 3145 3146 3146 3147 3147 3148 3149 3149 3150 3151 3152 3153 3154 3154 3155 3156 3157 3158
3125 3127 3128 3130 3132 3133 3133 3134 3136 3135 3135 3135 3136 3137 3137 3137 3137 3137 3136 3135 3134 3133 3132 3131 3130 3129 3129 3129 3129 3130 3130 3131 3132 3132 3132 3132 3133 3133 3133 3133 3134 3134 3134 3134 3135 3136 3137 3137 3137 3137 3137 3138 3138 3138 3138 3138 3138 3138 3139 3139 3140 3140 3141 3142 3142 3142 3142 3143 3144 3144 3145 3146 3146 3147 3148 3148 3149 3150 3151 3152 3153 3153 3154 3155 3156
3124 3126 3128 3128 3130 3132 3133 3134 3135 3134 3134 3135 3135 3136 3137 3137 3137 3137 3136 3136 3135 3133 3132 3131 3131 3130 3130 3129 3129 3129 3129 3130 3130 3131 3131 3131 3131 3132 3132 3131 3132 3132 3133 3133 3133 3134 3135 3135 3135 3135 3136 3136 3136 3136 3137 3137 3136 3136 3136 3137 3138 3138 3139 3140 3141 3141 3141 3142 3142 3143 3143 3143 3144 3145 3146 3147 3148 3149 3150 3150 3151 3152 3153 3153 3154
3123 3125 3126 3127 3128 3131 3132 3133 3133 3133 3133 3134 3135 3135 3136 3136 3136 3137 3136 3136 3135 3134 3133 3132 3132 3131 3131 3130 3130 3129 3129 3129 3129 3130 3130 3129 3129 3130 3130 3130 3130 3131 3131 3131 3131 3132 3132 3132 3133 3133 3134 3134 3134 3134 3135 3135 3135 3135 3135 3135 3136 3137 3138 3139 3139 3140 3140 3141 3141 3142 3142 3142 3143 3143 3144 3146 3147 3148 3148 3149 3149 3151 3151 3152 3152
3121 3122 3124 3126 3127 3130 3131 3132 3132 3132 3132 3133 3134 3134 3135 3135 3136 3136 3135 3135 3134 3134 3133 3132 3131 3131 3130 3130 3129 3129 3129 3129 3129 3130 3129 3128 3128 3128 3128 3129 3129 3129 3129 3129 3130 3130 3130 3130 3130 3131 3132 3132 3133 3133 3133 3134 3134 3134 3135 3135 3136 3136 3137 3138 3138 3139 3139 3139 3140 3140 3141 3141 3142 3142 3143 3144 3144 3145 3146 3147 3148 3148 3149 3149 3150
3120 3122 3123 3125 3127 3129 3130 3130 3130 3130 3131 3132 3132 3133 3134 3134 3135 3135 3134 3134 3133 3133 3132 3131 3130 3130 3130 3129 3129 3128 3128 3128 3129 3129 3129 3128 3127 3127 3127 3127 3127 3127 3127 3127 3128 3128 3128 3128 3129 3129 3130 3131 3131 3132 3132 3132 3133 3133 3134 3134 3135 3136 3136 3136 3137 3137 3137 3138 3138 3139 3140 3140 3141 3141 3142 3142 3142 3142 3144 3145 3145 3146 3146 3147 3147
3119 3121 3123 3125 3127 3129 3129 3129 3129 3130 3130 3131 3131 3132 3133 3133 3134 3134 3133 3133 3133 3132 3131 3131 3130 3130 3129 3129 3129 3128 3128 3128 3128 3128 3128 3128 3127 3126 3126 3126 3126 3126 3126 3126 3126 3127 3127 3127 3128 3128 3128 3129 3130 3130 3131 3131 3131 3132 3132 3133 3133 3134 3135 3135 3136 3136 3136 3136 3137 3138 3139 3139 3140 3140 3140 3141 3141 3141 3141 3142 3143 3143 3143 3143 3144
3118 3119 3121 3123 3125 3127 3128 3128 3128 3129 3130 3130 3131 3131 3132 3133 3133 3133 3133 3133 3133 3132 3132 3132 3131 3131 3130 3129 3129 3128 3128 3128 3128 3128 3128 3127 3127 3126 3126 3125 3125 3125 3125 3125 3126 3126 3126 3126 3126 3127 3127 3127 3128 3129 3130 3130 3130 3131 3131 3132 3132 3133 3133 3134 3134 3135 3135 3135 3136 3137 3138 3138 3139 3139 3139 3139 3139 3139 3139 3139 3139 3141 3141 3141 3142
3116 3117 3120 3122 3124 3125 3126 3126 3127 3128 3129 3130 3130 3130 3131 3132 3133 3133 3133 3132 3133 3133 3133 3133 3132 3131 3131 3130 3129 3128 3128 3128 3127 3127 3127 3127 3126 3126 3125 3125 3125 3125 3125 3126 3126 3126 3126 3126 3126 3126 3126 3126 3127 3127 3128 3129 3129 3130 3130 3130 3131 3131 3132 3133 3133 3134 3134 3134 3135 3135 3136 3137 3138 3138 3138 3138 3137 3137 3137 3136 3136 3137 3138 3139 3140
3113 3115 3117 3119 3121 3122 3123 3125 3126 3127 3128 3128 3129 3130 3131 3132 3133 3133 3132 3133 3133 3134 3134 3133 3133 3132 3132 3131 3130 3129 3128 3128 3127 3127 3127 3126 3126 3125 3125 3125 3125 3125 3125 3126 3126 3126 3126 3126 3126 3126 3126 3126 3126 3126 3127 3127 3128 3128 3129 3129 3130 3130 3131 3131 3132 3132 3133 3133 3134 3134 3135 3136 3136 3136 3136 3136 3136 3136 3136 3135 3134 3134 3135 3137 3138
3109 3111 3114 3116 3117 3119 3121 3123 3125 3126 3126 3127 3128 3129 3130 3131 3132 3132 3132 3132 3133 3134 3134 3134 3133 3133 3132 3131 3130 3129 3129 3128 3128 3127 3127 3126 3126 3125 3125 3126 3126 3126 3126 3126 3126 3126 3126 3126 3126 3126 3126 3126 3126 3126 3126 3126 3127 3127 3128 3128 3128 3129 3129 3130 3131 3131 3132 3132 3133 3133 3134 3135 3135 3135 3135 3135 3135 3135 3135 3134 3133 3133 3134 3136 3135
3108 3108 3109 3112 3115 3117 3119 3121 3123 3124 3124 3126 3127 3128 3129 3130 3130 3131 3131 3132 3132 3133 3134 3134 3134 3133 3133 3132 3131 3130 3129 3128 3128 3127 3127 3126 3126 3126 3126 3126 3126 3126 3126 3126 3126 3126 3126 3126 3126 3126 3126 3126 3126 3126 3126 3126 3126 3127 3127 3127 3127 3128 3128 3129 3129 3130 3131 3131 3132 3132 3133 3133 3133 3133 3133 3133 3133 3133 3133 3133 3133 3133 3134 3134 3134
Wind_Speed
15 14 13 13 12 11 11 10 10 10 9 9 9 9 9 9 9 9 9 9 9 9 9 9 9 8 8 7 6 5 4 4 4 4 4 4 5 7 9 11 13 16 19 21 23 23 22 21 20 20 20 20 19 18 17 16 17 17 16 14 13 12 12 13 14 16 17 17 16 17 17 18 19 21 22 23 24 24 24 25 25 26 29 32 31
12 13 13 13 13 12 11 11 11 10 10 10 10 10 9 9 10 10 10 9 9 9 9 9 9 9 8 8 7 6 5 4 4 5 5 5 5 6 8 11 13 16 18 21 23 23 23 22 21 20 20 20 20 19 17 17 18 17 16 14 13 12 12 12 14 15 15 15 14 15 16 18 19 21 22 23 24 24 25 25 25 26 27 30 32
12 13 13 14 14 13 12 12 11 11 11 11 10 10 10 10 11 10 10 9 9 9 9 9 9 9 9 8 7 6 6 5 5 6 6 6 6 6 8 11 13 15 18 21 23 24 23 22 22 21 21 21 20 19 18 18 18 17 16 14 13 12 12 12 14 14 14 13 13 13 15 16 18 20 21 22 23 24 25 25 26 26 27 28 30
14 12 12 13 14 14 13 13 12 12 11 11 11 11 11 11 10 10 9 9 9 9 9 9 9 9 9 9 7 7 6 6 6 6 6 7 6 6 8 10 13 15 18 21 23 24 24 23 22 22 21 21 20 19 18 18 18 17 16 15 13 12 12 12 14 13 12 12 11 12 13 14 17 20 21 21 22 23 25 26 26 26 26 27 28
13 11 10 12 13 14 13 13 13 13 12 13 13 12 11 10 10 9 9 9 9 9 9 9 10 10 10 9 8 7 7 7 6 6 7 7 6 6 7 9 12 14 17 20 22 24 25 24 23 22 22 21 20 20 19 18 18 17 16 15 13 12 12 12 13 12 11 11 10 10 11 13 15 18 21 21 20 22 23 25 26 27 26 26 26
12 10 10 11 13 14 14 15 14 14 14 14 13 12 11 10 9 9 9 10 10 9 9 10 10 10 11 10 9 7 7 7 7 6 7 7 6 6 7 9 12 14 16 19 22 24 25 25 24 23 22 21 21 20 19 18 18 17 17 15 13 12 12 12 12 11 10 9 9 9 9 11 14 17 20 20 20 21 22 24 25 26 27 26 26
12 11 11 11 13 15 16 16 15 16 15 14 13 12 11 10 9 9 9 10 10 10 9 10 11 11 11 11 9 8 8 8 8 7 7 7 6 6 7 9 11 13 16 18 21 23 25 25 25 24 23 22 22 21 20 19 18 18 17 16 14 13 12 11 11 10 9 8 8 8 8 10 12 15 18 19 19 20 21 22 23 25 26 26 26
12 12 12 12 14 16 17 16 16 15 14 14 13 12 11 10 10 9 10 11 11 10 11 12 12 12 12 11 10 9 9 8 8 8 7 6 6 6 7 10 11 12 15 18 20 23 25 25 25 25 24 24 23 22 21 20 19 19 18 17 15 14 12 11 10 9 8 6 6 6 6 8 11 13 16 18 18 19 21 21 22 24 25 26 26
12 13 13 15 16 18 18 18 16 15 14 14 13 12 11 10 10 10 11 11 12 11 12 12 12 11 12 11 10 10 9 8 8 8 7 6 6 6 7 10 11 12 14 17 20 22 24 26 26 26 26 25 24 23 22 22 21 20 19 18 17 15 14 12 10 9 8 6 5 5 5 6 9 12 14 16 17 18 19 21 21 22 23 25 26
12 13 14 15 16 18 19 18 16 15 15 14 14 13 11 11 10 11 11 12 12 12 12 12 11 11 11 11 10 9 8 8 8 7 6 5 5 6 7 9 10 11 13 17 19 21 24 25 26 27 27 26 25 24 24 23 22 21 20 19 18 16 15 14 12 10 8 7 5 4 3 4 7 11 13 14 16 17 17 19 21 21 22 23 24
11 12 14 14 15 17 19 18 17 15 15 15 14 13 12 11 11 11 12 12 13 12 12 11 11 11 11 10 9 8 8 8 8 7 6 6 6 6 7 8 10 11 13 16 19 21 23 24 26 27 27 27 26 25 25 24 23 22 21 20 18 17 16 15 13 11 9 8 6 4 2 3 5 8 11 12 15 16 16 17 19 20 21 21 23
12 14 17 17 18 18 20 19 17 15 15 14 14 13 12 11 11 11 12 12 12 12 11 11 11 11 10 9 8 8 8 8 8 8 7 7 7 7 8 9 10 11 12 14 17 20 22 24 26 27 27 27 26 26 26 25 24 24 23 21 19 18 17 16 15 13 11 9 7 6 4 2 3 6 8 10 12 14 15 16 17 19 20 20 21
13 17 20 22 23 21 21 20 18 16 15 14 13 12 12 11 11 11 12 12 11 11 10 10 10 10 9 9 8 8 8 8 8 8 8 7 7 8 9 10 10 10 10 12 14 18 22 24 26 27 28 27 27 27 26 26 26 25 24 22 20 19 19 18 16 14 13 10 9 7 5 4 2 4 6 8 9 12 14 15 15 16 18 19 19
14 17 22 25 26 25 22 21 18 16 15 13 12 12 11 11 10 10 10 10 10 9 9 9 9 8 8 8 8 7 7 7 8 8 8 8 8 8 9 10 10 10 9 10 11 14 20 25 26 27 28 28 28 28 27 27 27 26 25 23 22 21 20 19 17 16 14 12 10 8 7 6 4 3 4 5 7 9 11 13 13 14 16 17 18
11 14 20 25 26 24 21 20 18 16 15 12 11 11 11 10 9 9 9 9 8 8 8 7 7 7 7 7 7 7 7 7 7 8 8 9 9 9 10 10 10 10 9 9 10 11 15 23 27 27 28 28 28 28 28 28 28 28 26 25 23 22 21 20 19 18 16 14 13 11 9 8 5 3 2 3 4 6 9 11 12 12 13 15 16
8 13 17 20 21 19 17 18 17 14 12 12 11 10 10 9 9 9 8 8 8 8 7 6 6 7 7 7 6 6 7 7 8 8 9 10 10 10 10 10 10 10 10 10 10 10 11 17 24 27 27 28 28 29 28 28 29 29 28 26 25 23 22 22 20 19 18 16 15 13 12 10 7 5 3 1 1 3 6 9 10 10 11 12 14
7 12 15 16 16 16 15 15 14 12 10 11 11 11 10 9 8 8 7 7 8 7 7 7 8 7 7 7 7 7 7 8 9 10 10 10 11 11 11 11 11 11 10 10 10 10 10 11 17 23 27 27 27 28 28 29 29 29 28 28 26 25 24 23 22 21 19 18 16 15 14 12 10 7 5 3 2 2 4 6 8 8 9 10 11
5 10 12 14 14 15 14 13 14 12 10 9 10 9 9 8 7 7 7 7 7 7 7 8 8 7 7 7 7 8 8 10 11 11 11 11 11 11 11 11 11 11 10 10 10 9 9 9 11 16 24 28 28 28 28 29 29 30 29 28 28 26 25 24 24 23 21 20 18 17 16 14 12 9 7 6 4 3 3 4 6 6 7 8 9
6 7 7 9 12 13 12 12 12 11 10 8 7 6 7 8 7 7 7 8 7 7 7 7 6 6 7 7 8 8 9 10 11 11 10 10 10 10 10 10 10 10 9 9 9 9 8 8 9 11 17 25 28 28 28 28 29 30 30 29 28 27 26 25 25 24 23 22 20 19 18 16 14 12 10 8 7 6 5 4 4 5 6 6 7
8 8 9 10 12 12 12 12 11 10 9 7 6 5 6 7 7 8 8 8 7 7 7 7 7 7 7 7 8 9 10 10 11 10 10 10 10 10 10 10 10 9 9 8 9 9 8 8 8 9 12 19 26 28 28 28 29 30 30 30 29 27 27 26 26 25 24 24 22 21 20 18 17 15 13 11 10 8 7 6 5 5 4 5 6
9 11 10 11 13 15 15 14 12 10 7 6 6 5 5 6 6 7 7 7 7 7 7 7 7 7 8 8 9 10 10 10 10 10 10 10 10 10 10 10 10 10 10 10 10 9 9 9 9 9 10 13 20 26 28 27 28 29 30 31 30 28 27 27 27 26 25 25 24 22 21 20 19 17 16 14 13 11 9 8 7 6 5 4 4
9 10 12 13 15 16 16 16 15 11 7 4 3 2 2 4 6 6 7 7 7 7 8 8 8 8 9 10 10 11 11 11 11 12 12 12 11 11 11 11 12 12 12 12 12 12 12 12 11 10 10 11 14 20 26 27 28 28 29 31 30 28 27 27 27 27 27 26 25 24 23 22 21 20 18 17 15 13 12 10 9 7 6 5 4
7 9 12 14 16 17 16 16 16 13 9 4 1 3 6 5 6 6 6 7 7 8 8 9 9 10 10 11 11 12 12 13 13 13 13 13 13 13 13 12 13 13 13 13 13 13 13 14 13 11 10 10 12 15 21 26 28 28 29 30 30 28 27 27 27 27 27 27 26 25 23 23 22 21 20 19 17 15 14 12 11 9 8 6 5
6 8 11 13 16 18 18 17 16 14 12 8 6 8 9 7 6 6 6 7 8 8 9 9 10 11 12 12 12 13 13 14 14 13 13 13 13 13 13 13 13 13 13 13 12 12 13 14 14 13 11 10 10 12 17 22 26 29 30 30 30 28 28 28 28 28 27 27 27 26 24 23 23 22 21 20 18 17 15 14 13 11 9 8 7
9 9 10 12 15 17 18 17 17 15 13 9 9 10 10 7 5 5 6 7 8 9 9 10 11 12 13 13 13 14 14 14 14 14 13 13 12 11 12 12 13 13 13 12 11 11 12 12 13 12 12 11 9 10 13 17 23 27 29 30 30 29 28 28 28 28 28 28 28 27 25 25 24 23 22 21 20 18 17 16 14 13 11 10 8
11 10 11 13 15 15 15 15 17 17 13 10 10 10 10 8 6 6 6 7 8 9 10 11 12 13 13 13 14 14 14 14 14 13 12 11 10 10 11 11 11 11 11 11 11 11 12 11 11 11 11 11 10 9 11 14 18 23 27 29 30 30 29 29 29 29 29 28 28 27 27 26 25 24 23 22 21 20 19 18 16 15 13 12 11
13 13 13 13 13 12 13 16 17 14 10 9 9 10 10 8 7 6 7 8 9 9 10 11 13 13 14 14 15 15 14 14 14 13 12 10 10 9 10 11 10 10 11 11 11 12 11 11 11 11 11 11 11 10 10 12 15 19 23 26 29 30 30 29 29 28 28 28 28 28 28 28 27 25 24 23 22 21 20 19 18 17 16 14 13
16 14 14 14 13 14 16 17 15 12 9 9 9 10 9 8 8 8 8 9 10 10 11 12 13 14 15 16 16 15 15 15 15 14 13 11 10 9 10 10 10 10 11 12 12 12 11 12 12 12 11 11 12 11 10 10 12 16 19 22 25 28 30 29 28 27 27 27 27 28 28 28 27 26 25 24 23 22 21 20 19 18 17 16 14
18 14 17 18 16 15 16 16 14 13 10 10 10 10 9 9 9 9 10 10 11 12 13 13 14 15 16 16 16 16 16 15 15 15 14 12 10 10 10 11 11 11 12 12 12 12 12 13 13 12 12 12 12 12 10 9 10 12 16 19 22 25 27 28 27 26 26 26 27 27 27 27 27 26 25 24 23 23 22 20 19 18 17 16 15
18 18 21 19 14 13 14 14 14 12 10 10 10 10 9 9 9 9 10 10 12 13 14 15 15 15 15 16 16 16 16 16 14 14 14 12 11 11 11 12 13 13 13 13 13 13 14 14 14 12 12 12 12 12 12 10 9 10 12 15 17 20 24 26 27 27 26 26 26 26 26 25 25 25 24 24 23 22 22 21 20 19 18 17 16
20 22 24 18 14 12 12 12 13 11 10 9 8 9 8 8 8 9 10 11 13 14 14 15 15 16 15 16 16 16 17 16 15 15 14 13 13 12 13 14 14 14 14 13 13 14 15 15 14 13 13 13 13 13 13 12 11 10 9 10 12 15 19 23 26 26 25 25 25 26 26 25 24 24 23 23 22 22 21 21 20 19 18 17 17
23 26 26 21 15 12 13 14 13 11 9 8 8 7 7 6 6 8 10 12 13 14 15 15 15 16 16 16 17 17 18 17 16 16 16 16 15 14 14 14 15 15 15 15 15 15 15 15 15 14 14 13 14 14 14 13 12 10 9 8 8 10 14 19 23 24 24 23 24 26 27 26 24 23 23 23 22 21 21 20 20 19 18 17 17
26 29 28 23 17 14 16 16 13 11 9 7 6 5 4 4 4 6 9 11 13 14 15 15 16 16 16 16 16 18 18 16 16 17 17 16 15 14 14 15 15 16 16 15 16 15 15 15 14 14 14 14 14 15 15 14 12 11 10 8 8 9 11 15 19 21 21 21 21 23 25 26 24 22 22 23 22 22 21 21 20 19 18 17 17
27 31 28 24 19 15 16 14 12 11 8 7 5 4 2 1 2 4 6 10 12 14 15 16 16 16 16 15 16 17 17 15 16 17 16 15 15 15 14 15 16 16 16 16 16 16 15 15 14 13 13 14 15 16 16 15 13 11 10 9 8 8 9 12 15 17 18 17 17 18 21 24 24 22 22 22 22 22 22 21 20 19 18 18 17
29 30 26 24 22 17 14 12 12 11 9 9 7 5 3 2 3 4 5 8 10 12 14 15 16 16 16 15 15 16 16 15 15 16 15 15 15 14 14 15 16 16 16 15 16 16 15 14 13 12 13 15 16 17 17 16 14 12 11 10 9 8 8 9 11 12 13 13 12 14 16 18 20 20 20 21 21 21 21 21 21 20 19 18 17
29 27 25 25 21 17 14 11 12 11 10 8 6 5 4 4 5 6 6 7 9 11 12 14 16 16 16 16 15 15 15 15 15 14 14 14 14 14 14 15 16 16 16 15 16 17 16 14 13 13 14 16 17 17 16 15 15 14 13 12 10 10 10 9 9 10 10 10 10 11 13 14 16 16 18 20 21 22 21 20 20 20 19 19 18
25 24 25 22 17 15 13 11 11 11 10 7 5 4 4 5 7 9 9 9 9 10 11 13 14 16 16 16 16 16 15 15 14 14 15 14 14 14 14 16 17 17 16 16 16 16 15 14 14 14 14 15 16 16 16 15 15 15 15 14 13 12 12 11 10 10 10 9 10 10 11 11 12 13 14 17 20 22 22 21 19 18 18 18 18
23 24 24 20 18 16 13 13 13 12 11 8 6 4 4 7 9 11 11 10 10 10 10 11 13 14 15 16 15 16 16 16 15 15 14 14 14 14 15 16 16 16 16 16 16 15 13 13 14 14 14 15 15 15 15 15 14 15 16 16 15 14 13 12 11 11 11 10 10 11 11 11 10 11 14 16 17 19 20 21 20 18 17 17 18
25 24 23 19 14 9 5 13 17 14 12 9 7 4 5 7 9 11 12 11 10 10 10 10 11 13 15 16 16 16 16 17 16 15 15 15 14 15 15 15 16 16 16 16 16 15 13 13 14 14 14 15 15 15 15 15 15 15 16 16 15 15 14 13 12 12 12 12 12 12 13 13 12 12 14 16 15 16 18 19 20 19 17 16 17
24 22 19 15 14 14 12 18 17 13 11 8 6 4 5 7 9 11 13 13 12 11 10 10 10 11 13 14 15 16 16 17 17 18 18 18 17 17 17 16 16 16 16 16 15 13 12 13 15 15 15 15 15 15 15 16 16 16 15 16 15 15 15 14 14 14 13 13 13 14 15 15 14 13 14 15 15 15 16 18 19 19 18 17 17
21 22 16 14 16 17 20 19 14 10 9 7 5 4 5 6 8 11 12 13 14 13 11 10 10 10 11 12 13 14 14 15 16 17 18 19 18 18 17 17 17 16 16 16 15 12 11 13 13 13 14 14 15 15 15 16 17 16 15 15 15 15 15 15 15 16 15 14 13 14 15 15 14 15 15 16 16 15 15 16 17 17 17 17 18
18 22 15 15 19 20 20 16 11 9 8 7 5 3 5 6 8 10 12 13 14 14 12 11 9 9 9 9 10 10 11 11 12 13 14 16 16 16 16 17 17 16 16 16 16 14 12 12 12 11 12 13 15 16 15 15 16 16 15 15 15 16 16 16 16 16 16 16 14 14 15 14 13 14 15 15 17 17 17 17 16 16 15 15 15
15 19 16 17 21 20 19 15 11 9 8 6 4 3 4 6 8 9 11 13 14 14 13 12 10 9 8 7 8 8 9 9 9 9 10 12 13 14 15 15 16 15 15 15 15 15 13 12 12 12 12 13 14 15 15 15 15 15 15 15 15 16 16 16 16 16 17 17 15 14 14 14 13 14 15 15 17 18 19 18 17 17 16 15 15
15 18 19 19 20 21 20 16 12 10 9 6 4 3 3 5 7 9 11 12 13 13 13 13 12 11 10 9 8 8 8 8 8 7 7 9 10 11 12 12 13 14 14 14 14 14 13 13 12 12 12 12 13 14 15 15 15 16 16 15 16 16 16 17 16 16 17 18 17 15 14 13 13 14 16 18 18 18 19 19 19 19 18 18 18
17 19 20 20 22 23 19 15 12 11 9 7 5 3 2 4 6 8 10 11 13 13 13 13 12 11 10 10 9 9 9 8 8 7 6 7 8 8 9 9 10 11 12 13 13 12 12 12 12 13 13 14 14 14 15 15 16 16 16 15 15 16 16 16 16 16 17 18 18 16 15 14 12 13 15 17 19 18 19 20 21 21 21 21 20
17 19 21 23 24 23 18 14 13 12 10 8 5 3 1 2 5 7 9 11 12 13 12 12 11 11 10 10 9 9 9 8 8 7 6 6 6 6 6 6 7 8 10 11 11 11 10 10 11 12 13 14 15 15 15 16 16 15 15 15 15 15 15 15 16 17 17 18 18 18 16 14 13 13 14 15 18 18 19 21 22 23 24 24 23
16 19 23 26 25 22 17 14 13 13 11 9 6 4 2 1 3 5 7 9 11 12 11 10 10 10 9 9 8 8 8 7 7 7 7 5 4 4 4 4 5 6 7 8 8 9 9 9 9 10 10 12 13 14 14 15 14 14 14 14 13 13 14 14 15 16 16 17 18 18 16 14 13 14 15 16 18 19 20 23 23 22 24 26 26
17 21 25 25 24 21 17 14 14 13 12 9 7 5 4 2 3 4 5 7 9 10 10 10 10 10 9 8 7 7 6 6 5 5 6 5 4 3 2 2 3 4 4 5 5 6 7 7 7 8 8 9 11 12 13 13 13 13 13 12 12 12 12 13 13 14 15 16 17 17 16 15 14 15 15 17 18 20 20 21 21 20 21 23 24
19 22 24 24 23 21 17 14 14 13 12 10 9 8 7 5 4 3 4 6 7 8 9 10 10 10 9 8 7 6 5 4 3 3 4 4 4 3 2 1 1 1 1 2 2 3 5 5 6 6 6 7 8 9 10 10 11 11 10 11 10 11 11 12 12 13 14 15 16 16 16 16 16 16 17 17 17 18 18 17 18 20 20 19 20
22 23 23 22 22 20 17 15 15 14 13 12 11 11 9 6 4 2 3 4 6 7 8 8 9 9 9 8 7 6 5 3 2 2 2 3 3 4 4 4 3 3 2 2 1 1 2 3 3 4 4 5 6 6 7 8 9 9 9 10 10 10 10 10 11 12 13 15 15 15 16 17 17 17 17 17 17 16 16 15 16 18 19 18 18
22 24 22 19 19 19 17 16 16 16 16 15 14 13 11 8 5 3 2 3 4 5 6 6 7 8 8 8 7 6 5 3 2 1 0 1 2 3 4 5 5 5 5 4 3 2 1 1 2 2 3 3 4 4 6 6 7 8 9 10 10 9 9 10 10 11 12 14 15 15 16 17 17 18 18 17 18 17 16 16 15 15 16 16 16
Wind_Direction
216 211 199 190 192 196 188 177 178 178 182 188 197 204 208 214 220 226 228 229 227 224 218 212 202 192 184 175 167 158 154 153 151 149 152 156 162 168 171 169 168 171 173 176 177 177 175 172 169 164 161 163 162 160 156 151 147 142 143 143 137 131 123 116 106 98 93 90 88 85 79 73 68 64 61 59 57 55 55 55 54 53 53 52 53
217 214 200 189 192 195 188 179 178 179 183 188 196 201 205 211 217 223 226 229 228 226 221 215 205 195 187 178 171 163 157 154 152 148 151 153 160 172 177 178 176 176 176 179 180 180 179 176 173 169 166 168 168 165 160 156 152 148 148 146 141 134 127 119 108 102 97 93 88 86 83 77 72 66 61 58 56 55 55 55 55 54 54 53 53
206 216 202 189 191 193 187 178 178 180 186 189 194 199 203 207 213 220 225 230 230 227 225 220 211 201 193 183 175 167 159 158 154 148 150 150 158 173 183 188 184 182 180 181 183 183 183 181 178 174 172 173 173 170 165 162 158 153 152 150 145 137 131 122 113 109 103 97 91 86 83 80 76 69 62 58 55 54 55 54 54 54 54 54 53
200 207 201 190 190 192 186 177 179 183 187 188 192 198 202 205 211 221 228 232 230 227 227 224 215 207 198 187 178 168 163 164 158 149 149 149 155 172 187 195 191 188 186 184 185 186 187 185 182 179 177 177 178 175 170 167 164 159 157 155 149 142 135 126 120 117 110 103 94 87 83 80 77 73 66 59 55 53 53 53 53 54 54 54 53
200 197 197 193 193 193 186 180 182 183 188 190 194 197 199 206 214 223 229 230 226 225 228 225 217 210 201 190 178 169 169 170 161 151 150 150 157 172 188 198 197 194 192 189 187 189 190 189 186 184 182 182 182 181 176 172 169 165 162 159 153 146 139 131 127 124 117 109 99 89 83 79 77 75 69 61 55 53 52 52 52 52 53 53 53
202 197 194 196 199 198 189 184 183 186 190 192 193 194 199 208 215 222 226 225 222 223 226 224 217 210 201 189 178 173 175 170 160 153 149 151 160 177 190 196 201 202 199 193 190 191 193 192 191 189 187 186 187 186 183 178 175 171 167 164 159 151 143 137 134 131 124 115 104 92 82 77 75 75 72 64 56 52 51 51 50 51 51 51 52
205 201 199 202 206 204 193 185 186 189 191 192 192 191 199 208 214 219 221 220 218 219 221 219 214 209 199 188 180 178 176 167 160 156 149 149 159 182 197 198 203 207 204 198 194 193 195 195 195 194 191 190 191 191 189 185 181 178 173 170 167 159 149 144 144 140 132 123 110 95 82 78 74 73 72 67 58 52 51 50 49 49 50 50 50
209 207 208 211 215 213 202 191 190 192 190 190 191 191 197 207 213 214 214 214 213 214 215 214 211 205 197 188 182 179 175 168 163 158 152 152 159 180 201 205 208 210 208 203 198 196 198 198 198 197 195 194 194 194 194 191 187 184 180 177 174 166 156 152 156 151 141 132 118 101 85 79 74 71 69 68 61 53 50 48 47 48 48 48 48
212 205 206 212 216 218 210 199 192 191 190 190 189 190 194 203 207 206 207 209 209 210 208 208 207 202 195 189 184 180 175 171 169 162 156 159 167 181 201 209 212 214 213 207 202 200 200 200 201 201 199 198 198 198 198 196 193 191 187 183 178 173 164 161 168 164 154 147 129 110 92 80 75 71 67 67 64 55 51 48 46 46 47 47 47
225 210 205 209 212 213 207 198 191 189 189 188 187 187 190 195 199 200 202 205 207 204 202 203 203 200 195 192 186 181 178 177 176 171 165 168 180 190 202 212 214 216 217 213 208 206 204 203 204 205 204 202 201 202 201 200 199 197 194 189 184 178 171 171 177 176 167 162 148 128 106 83 75 73 67 64 64 58 51 49 46 45 46 46 46
254 234 221 214 209 208 204 195 187 186 187 186 184 182 182 186 191 196 199 203 204 201 200 201 201 199 197 196 192 185 183 184 184 183 181 184 195 204 210 215 217 216 219 218 212 210 208 206 207 208 208 206 206 205 205 204 204 202 200 196 190 184 181 182 184 186 181 177 169 158 144 101 77 73 69 63 62 59 52 49 47 45 45 45 45
268 250 236 225 212 204 198 191 181 181 184 182 178 175 174 180 188 193 197 199 200 200 198 198 198 199 200 200 197 191 190 191 191 193 196 200 208 218 223 222 223 220 219 222 218 214 211 209 209 211 211 210 209 208 208 208 208 207 205 202 195 190 191 191 190 192 190 188 185 178 177 162 102 80 71 63 59 59 54 49 47 45 44 44 44
271 247 231 221 211 205 198 185 173 175 177 173 170 169 171 177 185 190 194 197 198 198 196 197 197 197 199 201 200 199 199 200 202 205 210 214 221 229 234 232 233 231 226 227 225 220 215 213 211 212 213 213 212 211 211 211 211 211 209 206 201 198 199 197 196 198 196 194 194 192 194 201 171 102 77 64 56 56 55 49 46 44 43 43 43
281 253 233 221 209 200 196 180 164 166 166 162 164 167 170 173 181 187 192 194 195 196 197 194 193 195 199 202 202 204 207 210 213 217 222 227 232 235 239 240 241 243 238 234 234 227 219 216 214 213 214 214 214 213 214 215 214 214 213 210 205 204 206 204 201 202 202 198 196 203 206 210 207 141 95 68 54 52 53 49 45 43 41 42 41
291 262 238 224 210 192 179 163 153 158 159 156 162 166 166 169 177 184 186 186 190 191 188 186 188 194 199 203 201 206 213 219 223 227 232 235 238 239 240 242 243 246 246 241 241 236 223 218 217 215 214 215 217 216 216 217 218 218 216 214 209 208 211 211 208 206 207 202 197 206 214 215 216 188 135 83 50 45 49 46 44 42 40 40 40
283 257 231 214 207 187 160 144 144 150 154 154 158 162 160 166 174 178 178 177 184 182 181 193 204 200 198 205 203 211 219 226 232 234 237 237 238 239 239 241 242 245 246 244 242 242 231 221 219 216 215 216 218 218 218 220 221 221 219 217 214 211 213 215 215 212 210 207 201 205 215 219 221 217 200 153 32 30 43 41 39 40 38 38 39
261 238 215 204 199 177 153 138 141 147 152 155 157 161 157 161 169 168 170 176 182 183 193 202 203 200 203 212 214 220 228 234 238 238 238 237 237 237 237 238 240 243 245 245 243 243 238 227 222 219 217 217 218 220 220 221 223 224 222 220 217 214 215 217 219 219 216 212 207 207 214 220 223 227 231 239 279 349 25 32 32 35 34 34 37
232 215 208 214 201 173 156 143 143 145 147 151 154 155 148 148 155 157 166 176 182 186 193 193 194 204 213 221 225 230 235 238 239 239 237 236 236 234 234 237 240 244 245 246 245 244 242 236 228 222 219 218 219 220 221 222 224 226 225 223 220 217 217 219 221 222 221 219 215 212 216 221 224 229 235 247 262 293 334 8 20 26 29 30 31
187 194 190 192 175 155 147 140 134 132 131 134 133 129 132 141 151 161 170 175 180 184 187 192 201 210 216 224 230 236 239 240 239 236 235 234 233 231 233 237 240 243 243 243 245 246 246 243 234 227 222 220 220 221 222 223 225 227 227 226 223 220 219 221 223 225 225 225 222 219 221 224 228 232 238 245 257 274 294 322 349 6 18 23 25
171 166 164 172 166 148 141 134 116 111 112 112 114 118 136 153 166 171 175 182 187 191 197 205 208 213 220 227 232 238 240 240 239 236 234 233 232 232 234 236 237 238 238 238 241 245 249 248 240 232 227 223 221 222 223 224 226 228 229 229 226 223 222 223 225 227 228 229 228 226 226 229 232 237 242 246 255 267 280 295 313 334 352 8 16
177 174 185 197 185 167 162 154 131 114 101 105 126 137 156 173 182 185 189 196 199 204 211 212 213 220 226 230 234 238 240 240 239 239 238 237 236 236 236 237 238 238 238 237 238 241 246 251 249 242 235 229 225 223 224 226 228 229 230 232 229 225 224 225 227 228 231 232 233 232 231 233 236 239 244 248 254 263 272 281 290 304 320 338 355
187 193 198 197 185 174 172 167 153 137 119 105 125 150 206 201 204 207 206 208 211 216 218 217 221 228 232 235 237 238 240 241 239 241 243 242 242 242 241 241 244 244 243 241 239 239 243 250 254 252 243 236 232 227 225 226 229 231 232 234 233 229 227 227 228 230 232 234 236 236 235 237 239 242 245 249 253 258 264 270 275 284 295 306 322
204 211 205 194 183 176 170 162 156 150 146 142 182 263 265 236 222 222 217 218 218 222 223 228 233 233 234 235 238 241 243 243 241 243 248 249 247 246 244 243 244 244 243 242 241 240 241 246 252 255 249 242 237 234 229 227 228 231 233 236 236 234 231 231 231 232 233 235 238 238 239 240 242 245 247 250 253 256 259 262 265 270 276 283 292
206 207 207 200 189 182 175 164 157 152 153 165 204 246 260 245 229 229 224 223 223 225 230 235 237 237 237 235 238 244 246 245 243 244 249 251 249 248 247 246 244 242 240 239 241 240 239 242 248 253 254 249 241 237 234 231 229 231 234 236 237 237 235 234 234 235 235 237 240 241 242 243 244 246 248 251 253 255 256 257 259 260 262 266 273
195 197 199 201 198 191 183 172 164 158 162 191 231 253 262 250 235 234 227 226 226 229 235 236 237 242 241 239 243 247 247 247 246 246 249 253 252 249 249 247 245 243 240 238 239 241 240 240 242 247 251 253 246 236 235 236 233 233 235 237 238 238 237 236 235 236 237 238 240 243 244 244 245 246 247 249 251 253 254 255 256 257 257 257 259
190 189 190 195 196 190 183 177 168 164 178 216 248 259 261 253 240 236 233 234 234 234 237 237 239 243 242 244 250 250 249 250 250 248 248 250 251 251 248 243 243 243 240 236 237 240 240 239 240 241 245 248 246 235 227 232 235 235 236 238 240 240 239 237 236 236 238 239 240 242 244 246 247 246 247 248 249 250 252 253 254 256 256 255 253
183 180 183 184 182 177 171 171 169 171 197 229 243 250 253 251 249 247 246 246 245 243 242 241 243 245 245 249 253 253 253 253 254 253 249 247 249 246 237 235 235 236 237 234 232 235 237 236 236 235 237 241 242 236 224 222 228 234 237 239 241 242 242 240 238 237 238 240 240 240 243 246 248 248 248 248 249 250 250 251 253 254 254 253 252
177 175 171 168 163 164 166 167 171 179 203 228 236 243 249 252 257 258 256 254 252 253 253 252 251 251 252 253 254 255 254 252 255 256 253 247 242 232 228 229 229 230 234 233 230 233 235 233 232 231 233 237 240 240 232 224 224 229 235 239 242 244 246 245 242 239 239 241 242 242 242 244 248 249 249 249 250 250 251 251 252 253 252 252 251
175 168 161 161 157 161 167 162 161 169 192 221 232 240 248 255 263 264 263 261 259 260 261 261 257 256 255 254 253 254 253 252 252 254 253 244 228 220 227 231 229 230 233 233 231 232 236 236 235 235 237 239 241 242 240 233 227 226 230 236 241 245 248 250 247 242 240 240 241 242 242 242 244 247 249 249 249 250 251 251 251 252 252 251 251
172 162 157 157 157 168 175 163 161 178 204 225 233 242 253 261 267 268 267 266 265 265 265 263 260 258 255 253 253 253 254 253 249 249 248 236 223 224 232 233 233 234 232 231 232 232 235 239 240 240 241 242 243 244 244 241 236 229 227 231 238 244 249 252 252 247 242 239 239 241 242 241 242 244 246 247 248 248 249 250 249 249 249 250 251
166 162 161 158 163 179 185 174 174 187 205 223 240 250 257 265 267 270 271 270 269 268 266 263 261 260 257 255 256 255 254 251 248 247 243 234 230 233 235 235 235 236 233 231 231 232 234 238 242 242 243 245 246 247 247 246 246 243 237 236 238 242 248 252 254 252 247 241 239 240 242 242 241 241 243 245 246 246 247 247 247 246 245 246 247
172 168 168 165 167 172 182 186 182 182 197 216 235 244 253 267 274 278 278 276 275 272 269 266 263 262 261 259 260 259 255 250 249 248 242 237 237 238 238 238 237 238 239 237 233 231 231 235 239 242 245 247 249 250 251 251 252 255 257 255 249 244 246 252 254 253 250 245 241 240 242 244 243 240 240 243 244 244 244 244 245 243 242 242 243
181 175 175 177 179 172 178 188 188 193 205 211 217 224 244 274 286 289 285 282 280 275 273 269 266 264 263 262 261 260 257 251 248 247 243 240 241 240 238 238 237 238 240 241 237 231 231 233 235 238 244 250 253 255 256 255 254 255 261 261 254 247 247 252 254 253 251 248 244 242 244 246 246 242 240 241 242 242 243 242 242 242 241 239 239
181 178 184 189 190 185 184 188 190 199 199 188 186 178 185 290 322 311 295 285 282 279 277 272 269 266 264 263 261 262 261 254 245 245 246 244 243 241 236 235 234 236 239 242 241 238 238 238 237 237 242 250 254 255 255 256 255 252 253 254 251 246 245 250 254 254 253 253 251 248 247 248 247 244 240 239 240 240 242 242 242 241 239 237 236
177 180 190 192 192 193 193 189 185 185 173 166 161 145 126 78 36 354 318 298 291 285 282 277 274 270 267 266 264 265 264 259 252 249 249 246 242 239 237 235 235 236 238 240 243 245 246 243 240 240 241 246 251 253 251 251 254 254 251 250 249 246 244 248 254 258 258 256 256 253 249 248 247 245 240 237 236 237 239 240 241 240 239 237 234
178 183 188 187 187 192 193 182 171 165 159 156 141 122 95 61 37 17 353 328 311 298 290 282 277 273 269 266 264 265 262 260 258 258 258 253 248 244 243 243 243 243 242 242 245 248 249 246 243 241 241 243 248 252 251 246 249 253 252 251 250 250 251 252 251 254 258 253 250 250 248 248 248 247 244 238 234 233 234 237 239 241 240 238 237
177 180 182 182 175 171 174 167 163 162 160 152 133 119 77 51 36 28 14 355 334 314 298 286 280 275 272 269 266 266 265 265 265 266 267 263 257 254 253 252 251 250 248 248 249 251 253 252 249 246 244 244 246 249 250 248 247 249 253 254 252 253 256 260 256 251 253 249 245 247 246 247 249 247 245 243 237 233 233 234 236 239 241 240 238
174 171 169 165 151 149 148 151 171 180 168 160 146 125 71 50 36 32 24 10 351 330 311 294 284 277 275 272 268 265 264 265 266 267 267 265 261 258 258 257 257 255 253 252 252 253 255 254 253 250 246 245 246 247 247 248 247 248 253 256 258 260 259 261 262 258 257 255 253 252 251 251 253 244 238 242 243 238 235 234 234 235 238 240 240
172 163 155 152 162 196 181 156 177 184 170 162 145 111 65 48 38 33 29 21 5 347 329 310 293 282 277 273 270 266 263 262 263 264 263 262 261 260 260 261 262 262 261 261 258 256 254 253 252 250 247 247 249 249 247 247 247 249 253 255 258 261 262 262 264 264 264 264 262 260 257 257 260 250 239 240 245 244 239 236 235 232 232 236 240
171 163 162 178 207 223 191 171 182 178 164 156 131 99 67 51 39 34 30 27 17 3 347 329 313 299 288 282 278 274 270 267 265 266 266 266 264 263 264 263 264 266 268 269 267 264 258 254 252 251 251 252 252 250 248 248 247 247 250 254 256 258 262 265 268 271 271 271 268 266 263 260 259 256 248 242 242 245 242 238 237 236 234 235 239
171 174 175 181 191 187 174 178 185 168 159 150 134 105 75 55 41 35 31 29 23 15 3 347 333 319 307 297 291 285 281 274 269 266 265 266 265 265 266 266 266 266 268 271 272 270 262 258 256 254 253 253 255 252 251 251 251 250 249 251 255 258 261 263 268 273 276 275 273 272 271 267 261 253 250 247 243 244 243 237 234 236 236 235 238
171 178 175 166 175 179 177 183 183 170 166 160 154 120 77 52 42 36 31 30 26 21 14 3 348 331 315 301 292 288 285 281 274 268 265 265 265 265 265 266 266 265 267 269 271 270 264 260 257 253 250 250 253 254 253 253 255 258 257 253 254 258 259 260 264 269 272 274 274 274 277 277 267 251 245 246 245 244 245 243 239 238 239 238 240
172 177 180 176 183 187 182 184 187 181 175 170 161 117 77 50 41 34 31 30 26 25 21 13 3 350 338 319 301 291 286 284 283 278 273 271 269 267 266 266 267 266 264 264 266 268 264 258 253 249 246 243 245 248 250 250 251 255 258 258 257 257 258 260 264 265 267 270 271 273 277 279 269 254 248 247 245 243 245 249 248 246 247 247 246
184 183 187 191 198 198 190 187 188 183 182 182 161 118 71 45 37 28 28 26 23 24 22 17 11 3 358 344 328 314 300 292 289 285 279 276 274 274 272 271 270 267 264 261 261 262 261 258 252 247 242 238 238 240 245 248 250 251 253 256 257 256 257 259 262 263 264 265 266 267 272 275 267 257 254 254 252 245 241 244 247 247 247 247 243
194 195 201 207 208 201 195 191 189 187 189 188 169 136 65 35 27 22 24 22 21 21 18 17 13 8 2 352 344 334 322 310 300 295 287 283 284 284 283 278 272 267 264 262 259 258 258 257 254 249 244 239 237 239 244 247 248 250 253 255 255 254 253 254 256 258 260 261 260 260 264 268 267 260 257 259 260 255 247 244 245 244 243 244 242
203 205 206 207 204 201 201 198 192 191 194 196 187 167 102 13 14 19 21 19 19 18 15 12 11 8 2 356 349 339 329 317 304 296 290 288 291 295 298 291 275 265 260 259 261 261 260 256 253 250 246 241 238 239 243 245 245 248 251 254 255 251 249 249 251 254 257 258 256 256 258 263 267 267 264 264 266 265 261 255 250 244 241 241 241
208 204 198 198 200 203 205 202 197 197 199 202 197 190 210 328 353 6 18 19 17 17 12 5 5 6 2 358 351 340 332 321 305 291 284 284 292 303 313 303 282 268 261 260 260 261 260 258 254 250 246 242 238 238 240 243 244 246 249 251 252 249 244 244 246 249 252 253 254 256 259 263 268 271 271 273 275 276 274 267 260 250 243 240 240
205 203 198 199 203 206 208 207 206 204 207 210 202 207 225 256 310 342 17 20 14 15 11 360 359 2 0 358 352 344 336 326 311 290 278 274 279 291 311 310 292 279 271 264 260 258 256 256 256 254 251 247 242 241 243 245 245 246 249 249 249 245 240 239 241 244 248 250 254 258 260 262 266 270 271 274 280 283 283 279 273 265 255 250 246
210 206 201 203 206 209 212 213 215 214 217 217 210 216 229 239 271 318 20 23 12 11 8 359 356 358 356 355 355 349 338 329 312 287 271 257 251 248 244 243 252 262 257 251 257 260 258 254 251 250 251 252 249 247 247 248 248 248 248 248 249 248 244 240 236 236 240 243 249 254 257 259 263 267 268 271 279 283 285 283 278 273 272 271 265
208 197 196 205 207 208 214 219 224 225 225 225 221 224 232 235 252 302 5 11 5 2 5 1 354 353 350 352 356 351 343 334 311 293 261 239 228 219 215 207 199 202 200 196 200 248 270 260 246 241 241 243 242 242 242 244 247 247 246 245 246 249 247 242 236 232 232 236 242 247 251 254 258 262 264 269 278 281 282 280 275 274 278 284 286
203 184 181 197 203 206 215 221 227 229 228 227 225 227 231 232 243 269 311 342 352 353 3 1 349 345 345 349 355 356 354 345 331 336 326 216 207 204 204 203 202 201 200 198 197 203 228 232 229 229 232 238 235 232 231 230 235 239 241 242 242 243 243 243 241 236 233 234 238 243 248 251 254 257 261 267 274 277 280 283 283 284 284 286 293